TimeCDT,TemperatureF,Dew PointF,Humidity,Sea Level PressureIn,VisibilityMPH,Wind Direction,Wind SpeedMPH,Gust SpeedMPH,PrecipitationIn,Events,Conditions,WindDirDegrees,DateUTC
12:09 AM,69.8,64.4,83,29.79,2.5,SSW,5.8,-,0.07,Rain,Heavy Rain,210,2012-10-14 05:09:00
12:36 AM,69.8,64.4,83,29.78,3.0,South,9.2,-,0.16,Rain,Rain,190,2012-10-14 05:36:00
12:54 AM,69.1,64.9,87,29.75,2.0,SSW,12.7,18.4,0.26,Rain,Heavy Rain,200,2012-10-14 05:54:00
1:02 AM,68.0,64.4,88,29.78,1.8,SSW,18.4,27.6,0.04,Rain,Heavy Rain,200,2012-10-14 06:02:00
1:07 AM,68.0,62.6,83,29.77,3.0,SSW,16.1,27.6,0.06,Rain,Heavy Rain,210,2012-10-14 06:07:00
1:54 AM,64.0,62.1,93,29.77,4.0,South,8.1,-,0.19,Rain,Heavy Rain,190,2012-10-14 06:54:00
2:54 AM,64.0,61.0,90,29.75,10.0,SSW,8.1,-,0.12,Rain,Light Rain,200,2012-10-14 07:54:00
3:54 AM,63.0,61.0,93,29.70,9.0,ESE,8.1,-,0.03,Rain,Light Rain,120,2012-10-14 08:54:00
4:54 AM,63.0,61.0,93,29.67,10.0,SE,3.5,-,0.01,,Clear,140,2012-10-14 09:54:00
5:54 AM,64.0,61.0,90,29.66,10.0,SSE,6.9,-,N/A,,Overcast,150,2012-10-14 10:54:00
6:54 AM,64.9,61.0,87,29.65,10.0,South,9.2,16.1,N/A,,Overcast,180,2012-10-14 11:54:00
7:54 AM,64.9,61.0,87,29.67,10.0,SSW,9.2,18.4,N/A,,Overcast,200,2012-10-14 12:54:00
8:16 AM,64.4,60.8,88,29.69,10.0,SSW,12.7,-,N/A,,Mostly Cloudy,210,2012-10-14 13:16:00
8:23 AM,66.2,60.8,83,29.68,10.0,SSW,10.4,20.7,N/A,,Mostly Cloudy,200,2012-10-14 13:23:00
8:52 AM,66.2,60.8,83,29.67,10.0,SSW,12.7,19.6,N/A,,Mostly Cloudy,200,2012-10-14 13:52:00
8:54 AM,66.0,61.0,84,29.66,10.0,SSW,13.8,20.7,N/A,,Mostly Cloudy,210,2012-10-14 13:54:00
9:54 AM,69.1,61.0,75,29.66,10.0,SW,11.5,28.8,N/A,,Mostly Cloudy,220,2012-10-14 14:54:00
10:54 AM,70.0,57.9,65,29.67,10.0,SW,17.3,27.6,0.01,,Mostly Cloudy,220,2012-10-14 15:54:00
11:54 AM,71.1,57.0,61,29.67,10.0,WSW,15.0,24.2,N/A,,Mostly Cloudy,240,2012-10-14 16:54:00
12:54 PM,70.0,55.9,61,29.69,10.0,WSW,18.4,32.2,N/A,,Mostly Cloudy,240,2012-10-14 17:54:00
1:54 PM,72.0,55.0,55,29.68,10.0,WSW,18.4,29.9,N/A,,Partly Cloudy,240,2012-10-14 18:54:00
2:54 PM,63.0,59.0,87,29.74,6.0,West,12.7,25.3,0.03,Rain,Light Rain,270,2012-10-14 19:54:00
3:32 PM,64.4,57.2,77,29.77,10.0,West,17.3,26.5,0.00,,Overcast,280,2012-10-14 20:32:00
3:54 PM,66.0,57.0,73,29.76,10.0,West,13.8,23.0,0.00,,Mostly Cloudy,270,2012-10-14 20:54:00
4:54 PM,66.0,54.0,65,29.80,10.0,WNW,15.0,21.9,N/A,,Mostly Cloudy,290,2012-10-14 21:54:00
5:54 PM,64.0,52.0,65,29.82,10.0,West,9.2,-,N/A,,Scattered Clouds,270,2012-10-14 22:54:00
6:54 PM,57.0,51.1,81,29.85,10.0,West,3.5,-,N/A,,Clear,270,2012-10-14 23:54:00
7:54 PM,55.0,51.1,86,29.88,10.0,West,5.8,-,N/A,,Clear,260,2012-10-15 00:54:00
8:54 PM,57.9,48.0,70,29.91,10.0,West,5.8,-,N/A,,Clear,280,2012-10-15 01:54:00
9:54 PM,53.1,46.9,80,29.94,10.0,WSW,4.6,-,N/A,,Clear,240,2012-10-15 02:54:00
10:54 PM,50.0,46.0,86,29.95,10.0,WSW,5.8,-,N/A,,Clear,250,2012-10-15 03:54:00
11:54 PM,50.0,46.4,87,29.96,10.0,West,3.5,-,N/A,,Clear,270,2012-10-15 04:54:00